Location: Neumark
(53.2815°N, 14.7811°E)
Time: 22:33:11
(UTC+00:00)

Daily predictions for brighter satellites

Satellite Brightness Start Highest point End
(mag) Time Altitude Azimuth Time Altitude Azimuth Time Altitude Azimuth
ADEOS 3.7 15:19:31 10° SSE 15:24:45 90° WSW 15:30:02 10° NNW
Sich 1 4.0 15:21:14 10° N 15:24:51 25° ENE 15:28:27 10° ESE
SL-16 R/B 3.8 15:19:41 10° N 15:25:20 38° WNW 15:30:59 10° WSW
NOSS 2-2 (C) 4.1 15:21:08 10° NW 15:25:44 63° NE 15:32:08 10° ESE
deb Kosmos-1763 3.9 15:23:04 10° SSW 15:26:28 89° SE 15:29:55 10° NNE
Cosmos 2084 4.2 15:23:08 10° NW 15:27:19 59° SW 15:31:41 10° SSE
ARGOS 4.4 15:24:03 10° E 15:27:48 19° NE 15:31:32 10° N
Meteor 2-2 Rocket 4.4 15:22:08 10° S 15:28:07 71° E 15:34:04 10° NNE
NOAA 11 4.2 15:22:44 10° SSE 15:28:09 82° ENE 15:33:38 10° NNW
Cosmos 2221 2.6 15:24:18 10° S 15:28:29 57° E 15:32:45 10° NNE
Cosmos 1805 Rocket 4.2 15:25:29 10° N 15:29:27 33° ENE 15:33:24 10° SE
Cosmos 1833 Rocket 3.5 15:25:15 10° SSE 15:30:10 32° ESE 15:35:07 10° NE
Cosmos 1939 Rocket 3.4 15:27:13 10° SE 15:31:00 37° ENE 15:34:47 10° N
YAOGAN 6 4.0 15:27:58 10° S 15:31:27 43° W 15:35:00 10° NNW
COSMOS 2406 4.2 15:29:02 10° SSE 15:33:49 28° ESE 15:38:36 10° NE
Cosmos 2219 Rocket 4.0 15:32:21 10° NNW 15:35:15 14° N 15:38:09 10° NE
USA 267 4.0 15:29:55 10° ENE 15:35:57 38° SE 15:41:57 10° SSW
Cosmos 1092 Rocket 4.2 15:29:49 10° N 15:36:01 50° ENE 15:42:09 10° SSE
Cosmos 1842 Rocket 3.7 15:33:36 10° S 15:38:00 62° E 15:42:27 10° NNE
GEOS 3 Rocket 4.4 15:33:50 10° E 15:38:24 32° NNE 15:42:57 10° NW
Meteor 1-31 Rocket 4.0 15:37:09 10° S 15:40:50 46° W 15:44:34 10° NNW
USA 307 2.9 15:37:22 10° W 15:41:40 83° N 15:45:56 10° E
CZ-4C R/B 2.9 15:35:06 10° NW 15:41:46 64° NE 15:49:48 10° ESE
CZ-2C R/B 2.8 15:37:30 10° SSE 15:42:21 79° ENE 15:47:07 10° NNW
CZ-2C R/B 4.1 15:40:53 10° NE 15:43:42 14° E 15:46:29 10° ESE
Cosmos 1606 2.8 15:42:46 10° SSW 15:46:33 79° WNW 15:50:23 10° N
Cosmos 1782 4.0 15:45:37 10° SE 15:48:47 23° E 15:51:58 10° NE
Cosmos 1763 Rocket 3.7 15:43:56 10° S 15:48:49 49° ESE 15:53:46 10° NE
USA 229 DEB 4.4 15:43:27 10° NW 15:50:38 68° SW 15:58:18 10° SSE
USA 229 4.4 15:43:32 10° NW 15:50:44 69° SW 15:58:24 10° SSE
Cosmos 1500 3.8 15:48:17 10° N 15:51:45 33° ENE 15:55:10 10° SE
H-2A R/B 2.5 15:49:30 10° SE 15:54:10 37° ENE 15:58:46 10° N
CZ-4B R/B 3.8 15:49:46 10° ESE 15:54:31 33° ENE 15:59:13 10° N
Cosmos 2360 4.3 15:49:15 10° NNW 15:55:02 85° WSW 16:00:46 10° SSE
H-2A R/B 4.4 15:56:23 10° NE 15:56:23 10° NE 15:56:36 10° NNE
Cosmos 1340 Rocket 3.2 15:51:42 10° NNW 15:55:46 71° W 15:59:49 10° S
CZ-2D R/B 3.9 15:52:36 10° SE 15:56:03 32° ENE 15:59:30 10° N
Cosmos 841 Rocket 4.4 15:51:59 10° SSE 15:56:21 28° E 16:00:15 12° NE
Cosmos 1937 Rocket 3.5 15:52:30 10° NNW 15:57:52 83° ENE 16:03:12 10° SSE
NOSS 3-4 (A) 4.4 15:52:13 10° WNW 15:57:54 35° N 16:03:17 14° ENE
NOSS 3-4 (C) 4.4 15:52:19 10° WNW 15:58:00 35° N 16:03:22 14° ENE
SeaSat 1 3.4 15:53:30 10° NNE 15:58:11 45° NW 16:02:52 10° WSW
Cosmos 1627 Rocket 4.5 15:52:08 10° N 15:58:16 60° ENE 16:04:19 10° SSE
CZ-4C R/B 3.5 15:55:10 10° NNE 15:59:04 72° WNW 16:02:45 10° SSW
ATLAS CENTAUR R/B 2.8 15:55:25 10° W 15:59:20 32° NNW 16:03:18 11° NE
Meteor 1-20 Rocket 4.3 15:53:52 10° NNW 15:59:45 86° ENE 16:05:37 10° SSE
ATLAS 2AS CENTAUR R/B 3.7 15:53:13 10° W 16:00:28 41° NNW 16:06:35 13° NE
Meteor 2-21 4.5 15:55:42 10° N 16:01:44 57° ENE 16:07:41 10° SSE
Cosmos 1125 Rocket 4.4 15:57:37 10° NNW 16:02:03 27° NE 16:06:29 10° ESE
USA 308 2.9 15:59:57 10° W 16:04:12 80° N 16:07:37 16° E
NOSS 2-1 (C) 4.1 16:01:50 10° W 16:04:49 33° NNW 16:07:34 13° NE
COSMOS 2455 3.6 15:59:44 10° S 16:05:02 34° ESE 16:09:19 15° ENE
Cosmos 2034 Rocket 3.9 15:59:16 10° S 16:05:25 82° E 16:11:37 10° NNE
COSMO-SKYMED 1 4.1 16:04:26 16° ENE 16:05:35 17° E 16:08:27 10° SE
Lacrosse 5 rocket 1.2 16:01:46 10° WNW 16:05:35 68° NNE 16:09:12 13° ESE
SMAP 3.0 16:01:05 10° SSE 16:05:44 76° ENE 16:10:24 10° NNW
Cosmos 372 Rocket 4.0 16:00:45 10° NNW 16:05:59 67° ENE 16:11:13 10° SE
Cosmos 2360 Rocket 3.4 16:03:19 10° NNW 16:07:42 22° NNE 16:10:24 16° ENE
ATLAS CENTAUR R/B 3.4 15:59:43 10° SW 16:08:54 47° SSE 16:12:03 17° ENE
AQUARIUS 4.1 16:06:07 10° SSE 16:10:35 72° ENE 16:15:05 10° NNW
Cosmos 1633 Rocket 3.6 16:07:54 10° N 16:11:54 34° ENE 16:15:54 10° SE
Cosmos 44 Rocket 3.5 16:07:14 10° NW 16:12:08 52° NE 16:16:52 10° ESE
USA 234 3.6 16:05:41 10° SE 16:12:12 69° SSW 16:18:44 10° WNW
SL-24 R/B - RUBIN 2 3.8 16:09:05 10° NW 16:13:44 76° SW 16:18:04 10° SE
NOSS 2-1 (D) 4.3 16:11:16 10° W 16:14:12 30° NNW 16:16:39 15° NNE
ISS -2.2 16:12:57 10° W 16:16:06 35° SSW 16:19:14 10° SE
NOAA 6 4.1 16:12:47 10° SSE 16:17:56 88° WSW 16:23:06 10° NNW
NOSS 2-2 (D) 4.5 16:14:06 10° NW 16:18:58 74° SW 16:25:48 10° SE
YAOGAN 1 3.8 16:19:40 20° ENE 16:19:42 20° ENE 16:22:51 10° NNE
COSMOS 2428 4.4 16:16:33 10° NNW 16:20:04 16° NNE 16:21:51 14° NE
Cosmos 1666 3.0 16:17:33 10° N 16:21:05 39° ENE 16:24:35 10° SE
CZ-4 R/B 3.2 16:23:29 15° NNE 16:23:29 15° NNE 16:24:41 10° NNE
Meteor 2-14 Rocket 4.4 16:17:50 10° N 16:24:00 80° ENE 16:30:05 10° SSE
Cosmos 2026 Rocket 3.9 16:18:57 10° N 16:25:09 85° E 16:31:14 10° S
Cosmos 1634 Rocket 4.1 16:19:01 10° S 16:25:13 60° E 16:31:27 10° NNE
Cosmos 1151 Rocket 3.7 16:21:43 10° SSE 16:25:33 32° E 16:27:48 20° NE
PSLV R/B 3.5 16:24:10 10° SSE 16:27:51 76° ENE 16:31:38 10° NNW
Cosmos 2322 Rocket 2.8 16:23:36 10° NNW 16:28:49 34° NE 16:32:02 20° E
Cosmos 1697 Rocket 3.8 16:24:08 10° NW 16:29:31 48° WSW 16:34:52 10° S
USA 305 2.8 16:26:00 10° W 16:30:16 82° N 16:32:40 25° E
CZ-4B R/B 4.4 16:26:58 10° SSW 16:30:42 38° W 16:34:17 10° NNW
Cosmos 1933 3.3 16:28:06 10° S 16:32:09 88° ESE 16:36:13 10° NNE
SL-08 R/B 4.0 16:28:51 10° N 16:33:28 53° WNW 16:37:59 10° SW
Cosmos 1980 Rocket 2.4 16:28:46 10° NW 16:34:28 77° WSW 16:40:05 10° SSE
Okean O Rocket 1.8 16:33:10 10° SE 16:37:26 47° ENE 16:41:44 10° N
Cosmos 2369 4.3 16:33:06 10° NW 16:38:44 60° WSW 16:44:21 10° SSE
Cosmos 1666 Rocket 3.5 16:34:19 10° N 16:38:46 68° ENE 16:43:10 10° SSE
Cosmos 540 Rocket 3.4 16:34:48 10° SSW 16:39:53 75° ESE 16:43:47 18° NNE
Cosmos 1470 Rocket 4.0 16:37:47 10° N 16:42:00 40° ENE 16:46:13 10° SE
MOS 1-B 4.3 16:37:48 10° SSE 16:43:36 88° ENE 16:49:26 10° NNW
Meteor 1-5 Rocket 4.3 16:38:30 10° N 16:44:31 74° ENE 16:50:26 10° SSE
Cosmos 1328 Rocket 4.1 16:41:57 10° SSE 16:46:02 37° E 16:46:57 33° ENE
SJ-11-01 4.3 16:41:29 10° SSE 16:46:08 58° ENE 16:50:48 10° N
Meteor 1-14 Rocket 4.2 16:40:57 10° NNW 16:46:48 82° ENE 16:52:44 10° SSE
SL-16 R/B 2.3 16:41:53 10° NNW 16:47:27 51° NE 16:51:23 19° ESE
Cosmos 1812 2.8 16:43:42 10° S 16:47:27 52° E 16:48:48 34° NE
Cosmos 1655 Rocket 4.2 16:41:58 10° N 16:48:11 49° ENE 16:54:21 10° SE
Meteor 2-21 Rocket 4.4 16:42:17 10° N 16:48:27 89° E 16:54:32 10° S
ERBS 2.8 16:46:12 10° WNW 16:49:17 41° N 16:49:40 39° NNE
Cosmos 2237 Rocket 4.0 16:46:41 10° NNW 16:49:37 14° NNE 16:50:40 13° NNE
Cosmos 2298 Rocket 4.0 16:47:11 10° NNW 16:52:29 58° ENE 16:57:44 10° SE
Cosmos 1570 Rocket 4.3 16:48:18 10° S 16:53:15 44° ESE 16:55:00 32° ENE
Cosmos 2082 Rocket 2.2 16:48:16 10° SSW 16:53:51 61° ESE 16:56:54 27° NE
SKYMED 2 3.9 16:53:03 37° ENE 16:54:04 43° E 16:58:13 10° S
Cosmos 1814 Rocket 4.1 16:50:09 10° S 16:55:11 51° ESE 16:57:16 32° NE
MOS 1-B Rocket 4.0 16:53:54 10° NNE 16:59:43 68° ESE 17:06:18 10° S
Cosmos 2333 Rocket 3.3 16:55:33 10° NNW 17:00:23 26° NE 17:00:43 26° NE
USA 306 2.8 16:58:11 10° W 17:02:27 89° SW 17:03:34 49° ESE
Cosmos 2278 4.1 16:56:46 10° NW 17:02:27 67° WSW 17:08:05 10° SSE
Sich 1 4.2 16:58:37 10° NNW 17:02:42 43° W 17:06:46 10° SSW
Cosmos 1818 3.6 16:58:28 10° NW 17:03:59 82° SW 17:08:58 13° SE
ARGOS 3.1 17:01:56 10° SSE 17:07:22 84° ENE 17:12:48 10° NNW
SL-16 R/B 4.2 17:06:37 10° NNW 17:09:15 13° N 17:10:35 12° NNE
Cosmos 1833 Rocket 3.2 17:08:18 10° SW 17:13:50 58° NW 17:17:33 21° NNE
GEOS 3 Rocket 3.5 17:13:44 35° ESE 17:16:01 77° NE 17:21:13 10° NW
COSMOS 2406 3.5 17:12:01 10° SW 17:17:43 67° NW 17:21:11 25° NNE
deb Chang Zheng 4 3.9 17:14:27 10° S 17:18:44 66° WSW 17:23:03 10° NNW
USA 267 3.2 17:16:34 37° ENE 17:19:30 86° SSE 17:26:04 10° WSW
Cosmos 2219 Rocket 3.3 17:16:24 10° NNW 17:20:35 27° NNE 17:20:35 27° NNE
USA 307 2.7 17:17:22 10° WNW 17:21:38 84° SSW 17:21:59 74° SE
Cosmos 1782 4.1 17:21:05 10° SW 17:24:52 40° WNW 17:27:49 15° N
CZ-2C R/B 2.4 17:21:47 25° NNE 17:24:53 81° ESE 17:30:04 10° SSW
IRS-1C Rocket 4.3 17:28:35 51° NE 17:28:35 51° NE 17:33:14 10° N
Cosmos 2208 Rocket 4.0 17:23:09 10° SSW 17:28:32 67° ESE 17:29:27 56° ENE
Cosmos 2150 Rocket 3.9 17:24:17 10° NNW 17:29:29 85° WSW 17:33:12 20° SSE
SL-08 RB Rocket 3.7 17:25:07 10° SSE 17:29:45 86° WSW 17:34:23 10° NNW
H-2A R/B 4.3 17:32:55 19° N 17:32:55 19° N 17:34:05 10° N
CZ-4C R/B 3.7 17:23:38 10° NW 17:30:30 52° SW 17:38:29 10° SSE
H-2A R/B 3.3 17:28:47 10° SSW 17:33:36 40° W 17:38:21 10° NNW
Meteor 2-6 Rocket 4.1 17:27:57 10° S 17:33:42 86° ESE 17:36:56 27° NNE
CZ-4B R/B 3.9 17:29:39 10° S 17:34:54 52° W 17:40:08 10° NNW
Cosmos 841 Rocket 4.0 17:32:54 10° SW 17:37:58 54° WNW 17:40:22 29° N
ATLAS CENTAUR R/B 3.5 17:36:05 10° NW 17:39:25 20° N 17:39:25 20° N
COSMO-SKYMED 1 2.7 17:41:39 61° NNW 17:42:13 70° WNW 17:46:33 10° SSW
USA 308 3.2 17:39:54 10° WNW 17:43:39 63° WSW 17:43:39 63° WSW
Lacrosse 5 rocket 2.4 17:40:54 10° WNW 17:44:35 38° SW 17:44:49 38° SSW
Cosmos 1125 Rocket 3.7 17:39:24 10° NNW 17:44:39 71° WSW 17:47:31 27° S
Cosmos 2237 4.0 17:39:50 10° NNW 17:45:36 78° ENE 17:46:08 71° ESE
NOSS 3-4 (A) 3.9 17:43:44 10° NW 17:50:10 52° NNE 17:50:45 51° NE
NOSS 3-4 (C) 3.9 17:43:50 10° NW 17:50:15 52° NNE 17:50:49 51° NE
COSMOS 2455 3.1 17:44:41 10° SW 17:50:41 65° NW 17:52:28 45° NNE
Cosmos 2279 Rocket 4.5 17:46:05 10° SSW 17:52:11 58° WNW 17:58:19 10° N
ISS -0.6 17:51:30 10° SW 17:52:11 10° SW 17:52:53 10° SSW
Cosmos 2266 Rocket 4.2 17:46:11 10° NNW 17:52:32 73° W 17:58:55 10° S
Cosmos 2360 Rocket 2.2 17:47:05 10° NNW 17:52:12 64° NNE 17:52:12 64° NNE
ATLAS 2AS CENTAUR R/B 3.4 17:46:01 10° NW 17:53:07 41° NNE 17:54:01 39° NNE
Meteor 2-15 Rocket 4.3 17:47:56 10° S 17:54:04 82° E 17:55:53 49° NNE
YAOGAN 1 3.6 17:56:49 40° NW 17:56:49 40° NW 17:59:44 10° NNW
CZ-4 R/B 3.6 17:59:29 17° NNW 17:59:29 17° NNW 18:00:30 10° NNW
Meteor 1-11 Rocket 3.9 17:50:53 10° NNW 17:56:29 71° W 18:02:10 10° S
Meteor 1-10 Rocket 4.2 17:53:38 10° SSW 17:59:24 83° WNW 18:00:37 57° N
COSMOS 2428 4.0 18:00:42 10° NNW 18:03:52 28° N 18:03:52 28° N
USA 305 4.3 18:05:54 10° WNW 18:08:40 36° W 18:08:40 36° W
Cosmos 2322 Rocket 2.5 18:07:36 10° NW 18:13:15 63° WSW 18:13:54 59° SSW
Okean O Rocket 3.7 18:10:14 10° SSW 18:14:00 26° W 18:17:47 10° NW
SL-16 R/B 3.4 18:26:14 10° NW 18:31:27 38° WSW 18:33:21 29° SSW
Cosmos 2237 Rocket 4.2 18:30:47 10° NNW 18:32:29 18° N 18:32:29 18° N
Cosmos 2082 Rocket 3.4 18:33:06 10° WSW 18:38:17 35° NW 18:38:46 34° NNW
ATLAS CENTAUR R/B 4.1 18:34:26 10° W 18:37:45 27° W 18:37:45 27° W
Cosmos 2333 Rocket 3.6 18:39:40 10° NNW 18:42:44 33° NNW 18:42:44 33° NNW
USA 267 3.8 19:03:55 52° WNW 19:03:55 52° WNW 19:08:55 10° W
Cosmos 2219 Rocket 4.1 19:00:12 10° NNW 19:02:19 24° NNW 19:02:19 24° NNW
Cosmos 2360 Rocket 4.4 19:31:40 10° NW 19:33:59 20° WNW 19:33:59 20° WNW
ATLAS 2AS CENTAUR R/B 4.2 19:37:39 10° NW 19:41:26 33° NW 19:41:26 33° NW
